Change the Weather History Date:

Sunday, May 12, 2013

  Actual Average Record
Temperature  
Mean Temperature 47 °F 60 °F  
Max Temperature 55 °F 69 °F 92 °F (1956)
Min Temperature 38 °F 50 °F 28 °F (1981)
Degree Days  
Heating Degree Days 18 7  
Month to date heating degree days 94 98  
Since 1 July heating degree days 5722 5869  
Cooling Degree Days 0 2  
Month to date cooling degree days 9 13  
Year to date cooling degree days 17 26  
Moisture  
Dew Point 27 °F    
Average Humidity 47    
Maximum Humidity 63    
Minimum Humidity 18    
Precipitation  
Precipitation 0.00 in 0.13 in 1.92 in (1935)
Month to date precipitation 0.69 1.49  
Year to date precipitation 12.64 11.85  
Sea Level Pressure  
Sea Level Pressure 30.10 in    
Wind  
Wind Speed 10 mph (NW)    
Max Wind Speed 21 mph    
Max Gust Speed 29 mph    
Visibility 10 miles    
Events      
T = Trace of Precipitation, MM = Missing Value Source: NWS Daily Summary

Daily Weather History Graph

Daily Weather History Graph

Search for Another Location

Airport or City:

Trip Planner

Search our weather history database for the weather conditions in past years. The results will help you decide how hot, cold, wet, or windy it might be!

Date:

Astronomy

May. 12, 2013 Rise Set
Actual Time 5:33 AM CDT 8:01 PM CDT
Civil Twilight 5:02 AM CDT 8:32 PM CDT
Nautical Twilight 4:23 AM CDT 9:12 PM CDT
Astronomical Twilight 3:39 AM CDT 9:56 PM CDT
Moon 7:28 AM CDT (5/12) 10:28 PM CDT (5/12)
Length of Visible Light 15h 30m
Length of Day
14h 27m
Waxing Crescent, 7% of the Moon is Illuminated
May 12
Waxing Crescent
May 17
First Quarter
May 24
Full
May 31
Last Quarter
Jun 8
New

Hourly Weather History & Observations

Time (CDT) Temp. Windchill Dew Point Humidity Pressure Visibility Wind Dir Wind Speed Gust Speed Precip Events Conditions
12:51 AM 44.1 °F 40.1 °F 27.0 °F 51% 30.05 in 10.0 mi WNW 6.9 mph - N/A   Scattered Clouds
1:51 AM 43.0 °F 38.2 °F 27.0 °F 53% 30.05 in 10.0 mi WNW 8.1 mph 16.1 mph N/A   Partly Cloudy
2:51 AM 41.0 °F 36.4 °F 27.0 °F 57% 30.05 in 10.0 mi West 6.9 mph - N/A   Clear
3:51 AM 39.9 °F 35.1 °F 27.0 °F 60% 30.06 in 10.0 mi WNW 6.9 mph - N/A   Clear
4:51 AM 39.9 °F 35.1 °F 26.1 °F 58% 30.06 in 10.0 mi WNW 6.9 mph - N/A   Clear
5:51 AM 37.9 °F 32.7 °F 26.1 °F 62% 30.09 in 10.0 mi West 6.9 mph - N/A   Partly Cloudy
6:51 AM 41.0 °F 35.2 °F 27.0 °F 57% 30.10 in 10.0 mi WNW 9.2 mph - N/A   Partly Cloudy
7:51 AM 43.0 °F 35.4 °F 26.1 °F 51% 30.11 in 10.0 mi NNW 16.1 mph 24.2 mph N/A   Partly Cloudy
8:51 AM 43.0 °F 35.4 °F 24.1 °F 47% 30.12 in 10.0 mi NW 16.1 mph 25.3 mph N/A   Scattered Clouds
9:51 AM 46.0 °F 39.0 °F 23.0 °F 40% 30.12 in 10.0 mi NW 17.3 mph - N/A   Scattered Clouds
10:51 AM 48.0 °F - 23.0 °F 37% 30.13 in 10.0 mi NNW 9.2 mph - N/A   Scattered Clouds
11:51 AM 50.0 °F - 25.0 °F 38% 30.13 in 10.0 mi NW 16.1 mph 24.2 mph N/A   Scattered Clouds
12:51 PM 51.1 °F - 25.0 °F 36% 30.12 in 10.0 mi NNW 15.0 mph 26.5 mph N/A   Mostly Cloudy
1:51 PM 51.1 °F - 25.0 °F 36% 30.13 in 10.0 mi WNW 16.1 mph 21.9 mph N/A   Mostly Cloudy
2:51 PM 54.0 °F - 25.0 °F 33% 30.11 in 10.0 mi WNW 8.1 mph 26.5 mph N/A   Mostly Cloudy
3:51 PM 54.0 °F - 23.0 °F 30% 30.09 in 10.0 mi NW 10.4 mph 20.7 mph N/A   Mostly Cloudy
4:51 PM 54.0 °F - 24.1 °F 31% 30.09 in 10.0 mi NNE 10.4 mph 23.0 mph N/A   Mostly Cloudy
5:51 PM 48.9 °F - 28.9 °F 46% 30.10 in 10.0 mi East 11.5 mph - N/A   Mostly Cloudy
6:51 PM 48.0 °F - 30.0 °F 50% 30.10 in 10.0 mi East 10.4 mph - N/A   Scattered Clouds
7:51 PM 46.0 °F 41.9 °F 30.9 °F 56% 30.11 in 10.0 mi East 8.1 mph - N/A   Scattered Clouds
8:51 PM 45.0 °F 41.8 °F 32.0 °F 60% 30.12 in 10.0 mi ESE 5.8 mph - N/A   Scattered Clouds
9:51 PM 45.0 °F 41.8 °F 32.0 °F 60% 30.13 in 10.0 mi SE 5.8 mph - N/A   Mostly Cloudy
10:51 PM 45.0 °F - 33.1 °F 63% 30.13 in 10.0 mi Calm Calm - N/A   Mostly Cloudy
11:51 PM 45.0 °F 42.6 °F 33.1 °F 63% 30.12 in 10.0 mi South 4.6 mph - N/A   Mostly Cloudy